Location: Bremen
(53.0830°N, 8.8000°E)
Time: 05:21:01
(UTC+02:00)

X-37B - Pass Details

Date: 08 August 2021
Orbit: 381 x 393 km, 45.0° (Epoch: 29 August)

Event Time Altitude Azimuth Distance (km) Brightness Sun altitude
Exits shadow 03:37:26 14° 143° (SE) 1,198 2.8 -15.6°
Drops below altitude 10° 03:38:22 10° 127° (SE) 1,397 3.3 -15.5°
Sets 03:40:59 0° 104° (ESE) 2,252 4.7 -15.3°
